User: anonymous   Login
Location: Mentone
(34.5413°N, 85.5351°W)
Time: 02:32:01
(UTC-05:00)
Language:

Uosat F - Orbit

View from above orbital plane
View from above orbital plane
View from above satellite
View from above satellite

Ground track
Ground track

The orbit data is extracted from the following two-line orbital elements,

1 21575U 91050B   17290.51298960 +.00000038 +00000-0 +26294-4 0  9992
2 21575 098.7527 309.8090 0006316 300.7305 059.3260 14.40816808378691
Epoch (UTC): 17 October 2017 12:18:42
Eccentricity: 0.0006316
inclination: 98.7527°
perigee height: 751 km
apogee height: 760 km
right ascension of ascending node: 309.8090°
argument of perigee: 300.7305°
revolutions per day: 14.40816808
mean anomaly at epoch: 59.3260°
orbit number at epoch: 37869

The dashed part of the orbit path shows where the satellite is in the earth's shadow,  

DLR